Flag for Germany Weather past 2 weeks in Halle, Saxony-Anhalt, Germany

Now
61 °F

Partly sunny.


Feels Like: 61 °F
Forecast: 52 / 68 °F
Wind: 10 mph from Northeast

Location: Leipzig-Schkeuditz

Current Time: Sep 2, 2014 at 6:51:21 PM

Latest Report: Sep 2, 2014 at 6:20 PM


Visibility: N/A

Pressure: 30.18 "Hg

Humidity: 77%

Dew point: 54 °F

Location of HalleLocation

Historic Weather in Halle — Graph

°F

Halle temperature yesterday

Maximum temperature yesterday: 66 °F (at 3:50 PM)
Minimum temperature yesterday: 52 °F (at 5:20 AM)
Average temperature yesterday: 58 °F

Past Weeks' High & Low Weather Summary

 TemperatureHumidityPressure
High73 °F (Aug 28, 3:50 PM)100% (Aug 26, 1:20 AM)30.18 "Hg (Aug 26, 1:20 AM)
Low48 °F (Aug 20, 3:50 AM)35% (Aug 22, 2:20 PM)29.68 "Hg (Aug 18, 5:20 PM)
Average59 °F77%29.96 "Hg
* Reported Aug 18 5:20 PM — Sep 2 5:50 PM, Halle, Weather by CustomWeather, © 2014

Note: Actual official high and low records may vary slightly from our data, if they occured in-between our weather recording intervals... More about our weather records

Advertising

Halle weather history for previous 24 hours

 ConditionsComfort  
Time TempWeatherWind HumidityBarometerVisibility
5:50 PM
Sep 2
61 °FPartly sunny.12 mph77%30.18 "HgN/A
5:20 PM61 °FPartly sunny.9 mph83%30.15 "HgN/A
4:50 PM61 °FBroken clouds.9 mph83%30.15 "HgN/A
4:20 PM61 °FBroken clouds.8 mph88%30.15 "HgN/A
3:50 PM61 °FPartly sunny.12 mph88%30.15 "HgN/A
3:20 PM61 °FPartly sunny.10 mph88%30.15 "HgN/A
2:50 PM61 °FPartly sunny.8 mph94%30.15 "Hg6 mi
2:20 PM59 °FDrizzle. Partly sunny.10 mph94%30.15 "Hg4 mi
1:50 PM61 °FBroken clouds.13 mph94%30.15 "HgN/A
1:20 PM63 °FBroken clouds.8 mph88%30.12 "HgN/A
12:50 PM63 °FBroken clouds.5 mph88%30.12 "HgN/A
12:20 PM61 °FLight rain. Broken clouds.6 mph94%30.12 "HgN/A
11:50 AM63 °FBroken clouds.6 mph88%30.12 "HgN/A
11:20 AM63 °FBroken clouds.5 mph88%30.12 "HgN/A
10:50 AM61 °FPartly sunny.2 mph94%30.12 "HgN/A
10:20 AM61 °FBroken clouds.3 mph94%30.12 "Hg6 mi
9:50 AM59 °FPartly sunny.3 mph100%30.09 "Hg4 mi
9:20 AM59 °FLight rain. Fog.5 mph100%30.09 "Hg3 mi
8:50 AM59 °FDrizzle. Fog.6 mph100%30.09 "Hg2 mi
8:20 AM57 °FDrizzle. Fog.5 mph100%30.09 "Hg2 mi
7:50 AM57 °FDrizzle. Fog.6 mph100%30.09 "Hg2 mi
7:20 AM57 °FDrizzle. Fog.5 mph100%30.09 "Hg1 mi
6:50 AM57 °FDrizzle. Fog.5 mph100%30.07 "Hg1 mi
6:20 AM57 °FDrizzle. Fog.5 mph100%30.07 "Hg2 mi
5:50 AM57 °FPassing clouds.5 mph100%30.07 "Hg2 mi
5:20 AM57 °FPassing clouds.3 mph100%30.07 "Hg2 mi
4:50 AM57 °FLight rain. Passing clouds.5 mph100%30.07 "Hg2 mi
4:20 AM57 °FLight rain. Passing clouds.3 mph100%30.07 "Hg2 mi
3:50 AM57 °FLight rain. Passing clouds.5 mph100%30.07 "Hg3 mi
3:20 AM57 °FLight rain. Partly cloudy.6 mph100%30.09 "Hg4 mi
2:50 AM57 °FLight rain. Passing clouds.6 mph100%30.07 "Hg5 mi
2:20 AM57 °FLight rain. Passing clouds.7 mph100%30.09 "Hg5 mi
1:50 AM57 °FLight rain. Partly cloudy.6 mph94%30.09 "HgN/A
1:20 AM57 °FLight rain. Passing clouds.6 mph94%30.09 "HgN/A
12:50 AM57 °FLight rain. Passing clouds.6 mph94%30.09 "HgN/A
12:20 AM57 °FPassing clouds.7 mph88%30.09 "HgN/A
11:50 PM
Sep 1
57 °FPartly cloudy.6 mph88%30.09 "HgN/A
11:20 PM57 °FPartly cloudy.6 mph94%30.09 "HgN/A
10:20 PM57 °FPassing clouds.6 mph88%30.09 "HgN/A
9:50 PM57 °FPartly cloudy.5 mph88%30.09 "HgN/A
9:20 PM59 °FPassing clouds.5 mph82%30.09 "HgN/A
8:50 PM59 °FSunny.5 mph82%30.09 "Hg10 mi
8:20 PM61 °FSunny.6 mph83%30.07 "Hg10 mi
7:50 PM63 °FScattered clouds.6 mph77%30.07 "HgN/A
7:20 PM64 °FBroken clouds.5 mph78%30.07 "HgN/A
6:50 PM64 °FBroken clouds.6 mph73%30.07 "HgN/A
6:20 PM64 °FBroken clouds.5 mph73%30.07 "HgN/A
Weather by CustomWeather, © 2014

See weather overviewHow to use our weather pages